Home > Weather > Hamilton > Past weeks

Flag for Canada Past Weather in Hamilton, Ontario, Canada — Yesterday and Last 2 Weeks

Now
86 °F

Scattered clouds.


Feels Like: 87 °F
Forecast: N/A
Wind: 20 mph from West

Location: Hamilton Airport

Current Time: Jul 25, 2016 at 6:15:16 PM

Latest Report: Jul 25, 2016 at 5:00 PM


Visibility: 15 mi

Pressure: 29.85 "Hg

Humidity: 49%

Dew Point: 64 °F

Location of HamiltonLocation

Past Weather in Hamilton — Graph

°F

Hamilton Temperature Yesterday

Maximum temperature yesterday: 82 °F (at 2:00 PM)
Minimum temperature yesterday: 66 °F (at 6:00 AM)
Average temperature yesterday: 74 °F

High & Low Weather Summary for the Past Weeks

 TemperatureHumidityPressure
High91 °F (Jul 13, 4:00 PM)100% (Jul 14, 12:51 AM)30.29 "Hg (Jul 14, 12:51 AM)
Low50 °F (Jul 17, 6:00 AM)30% (Jul 20, 4:00 PM)29.75 "Hg (Jul 14, 6:00 AM)
Average74 °F67%30.00 "Hg
* Reported Jul 10 5:00 PM — Jul 25 5:00 PM, Hamilton, Weather by CustomWeather, © 2016

Note: Actual official high and low records may vary slightly from our data, if they occured in-between our weather recording intervals... More about our weather records

Advertising

Hamilton Weather History for the Previous 24 Hours

Scroll right to see more
 ConditionsComfort  
Time TempWeatherWind HumidityBarometerVisibility
5:00 PM
Mon, Jul 25
86 °FScattered clouds.20 mph49%29.85 "Hg15 mi
4:00 PM86 °FScattered clouds.16 mph55%29.84 "Hg15 mi
3:00 PM86 °FPartly sunny.15 mph55%29.85 "Hg15 mi
2:00 PM82 °FBroken clouds.9 mph79%29.85 "Hg15 mi
1:00 PM79 °FMostly cloudy.12 mph89%29.87 "Hg8 mi
12:00 PM77 °FMore clouds than sun.9 mph94%29.88 "Hg8 mi
11:00 AM77 °FPartly sunny.12 mph89%29.86 "Hg15 mi
10:00 AM73 °FPartly sunny.13 mph94%29.86 "Hg15 mi
9:00 AM72 °FMore clouds than sun.10 mph94%29.85 "Hg15 mi
8:00 AM72 °FThunderstorms. Cloudy.20 mph94%29.86 "Hg6 mi
7:00 AM70 °FThunderstorms. Mostly cloudy.17 mph94%29.84 "Hg15 mi
6:49 AM72 °FThunderstorms. Mostly cloudy.20 mph83%29.84 "Hg6 mi
6:00 AM75 °FThunderstorms. Mostly cloudy.10 mph83%29.86 "Hg15 mi
5:00 AM75 °FOvercast.13 mph89%29.85 "Hg15 mi
4:00 AM73 °FPartly cloudy.9 mph94%29.86 "Hg15 mi
3:00 AM72 °FPartly cloudy.8 mph94%29.87 "Hg15 mi
2:00 AM72 °FPassing clouds.8 mph88%29.88 "Hg15 mi
1:00 AM72 °FPassing clouds.7 mph94%29.90 "Hg15 mi
12:00 AM72 °FPassing clouds.6 mph94%29.90 "Hg15 mi
11:00 PM
Sun, Jul 24
73 °FPassing clouds.8 mph89%29.92 "Hg15 mi
10:00 PM73 °FPassing clouds.7 mph89%29.93 "Hg15 mi
9:00 PM75 °FScattered clouds.7 mph78%29.93 "Hg15 mi
8:00 PM79 °FScattered clouds.8 mph70%29.93 "Hg15 mi
7:00 PM82 °FPartly sunny.9 mph58%29.94 "Hg15 mi
6:00 PM79 °FBroken clouds.5 mph70%29.94 "Hg15 mi
Weather by CustomWeather, © 2016

See weather overviewHow to use our weather pages